Location: Biltmore Gardens
(41.6070°N, 83.4666°W)
Time: 14:19:17
(UTC+00:00)

JB-3 - Pass Details

Date: 14 July 2020
Orbit: 525 x 591 km, 97.3° (Epoch: 05 August)

Event Time Altitude Azimuth Distance (km) Brightness Sun altitude
Rises 03:52:02 0° 9° (N) 2,670 8.7 -22.0°
Reaches altitude 10° 03:54:08 10° 8° (N) 1,775 7.7 -22.2°
Maximum altitude 03:57:57 74° 284° (WNW) 553 4.3 -22.5°
Enters shadow 03:58:09 71° 253° (WSW) 560 4.2 -22.5°
